WEST CAPE MAY - NJ NJ-MESONET current weather conditions

sailwx.info

Wind from 261 at 5 knots gusting 12

Air temperature 10.0° C
Dewpoint 3.3° C

Last reported at 2019-Dec-15 16:05 UTC.
Time now 2019-Dec-15 16:32 UTC

Location: N 38°57' W 074°57'.
View on Google Maps.

See reports from other nearby stations

  
Tides and Currents Weather Stations Pressure Air Temp Water Temp Dewpoint Dewpoint Depression Visibility Wind Speed Wind Dir Waves Ship Positions
date/time (UTC)wind fromknots sea level pressurealtimeterstation pressurevisibilityair tempwater tempwave heightnotes
2019-Dec-15 16:05 261 5 gusting 12 10.0
2019-Dec-15 16:00 240 6 gusting 13 10.0
2019-Dec-15 15:50 249 11 gusting 16 9.4
2019-Dec-15 15:45 270 8 gusting 12 9.4
2019-Dec-15 15:40 274 9 gusting 16 9.4
2019-Dec-15 15:35 258 3 gusting 13 8.9
2019-Dec-15 15:30 252 4 gusting 11 8.9
2019-Dec-15 15:25 253 2 gusting 13 8.9
2019-Dec-15 15:20 249 13 gusting 13 8.9
2019-Dec-15 15:15 265 4 gusting 13 8.9
2019-Dec-15 15:10 216 6 gusting 13 8.9
2019-Dec-15 15:05 274 9 gusting 11 8.3
2019-Dec-15 15:00 218 5 gusting 11 8.3
2019-Dec-15 14:55 270 5 gusting 13 8.3
2019-Dec-15 14:50 202 6 gusting 10 8.3
2019-Dec-15 14:45 254 4 gusting 10 8.3
2019-Dec-15 14:40 261 8 gusting 10 7.8
2019-Dec-15 14:35 254 9 gusting 13 7.8
2019-Dec-15 14:30 231 5 gusting 18 7.8
2019-Dec-15 14:25 261 6 gusting 13 7.8
2019-Dec-15 14:20 222 4 gusting 11 7.8
2019-Dec-15 14:15 257 6 gusting 10 7.8
2019-Dec-15 14:10 225 7 gusting 18 7.8
2019-Dec-15 14:05 260 7 gusting 13 7.8
2019-Dec-15 14:00 251 9 gusting 14 7.8
2019-Dec-15 13:55 250 15 gusting 15 7.2
2019-Dec-15 13:50 279 6 gusting 13 7.2
2019-Dec-15 13:45 232 8 gusting 13 7.2
2019-Dec-15 13:40 281 5 gusting 13 7.2
2019-Dec-15 13:35 225 10 gusting 16 7.2
2019-Dec-15 13:30 242 7 gusting 9 7.2
2019-Dec-15 13:25 269 8 gusting 13 7.2
2019-Dec-15 13:20 281 5 gusting 13 7.2
2019-Dec-15 13:15 305 4 gusting 10 6.7
2019-Dec-15 13:10 259 7 gusting 11 6.7
2019-Dec-15 13:05 259 5 gusting 10 6.7
2019-Dec-15 13:00 238 6 gusting 11 6.7
2019-Dec-15 12:55 272 7 gusting 13 6.7
2019-Dec-15 12:50 264 9 gusting 16 6.7
2019-Dec-15 12:45 284 9 gusting 11 6.7
2019-Dec-15 12:40 268 9 gusting 13 6.7
2019-Dec-15 12:35 257 3 gusting 13 6.7
2019-Dec-15 12:30 240 1 gusting 12 6.7
2019-Dec-15 12:25 206 5 gusting 13 6.7
2019-Dec-15 12:20 257 7 gusting 12 6.7
2019-Dec-15 12:15 271 5 gusting 13 6.7
2019-Dec-15 12:10 246 6.7
2019-Dec-15 12:05 250 4 gusting 10 6.7
2019-Dec-15 12:00 196 4 gusting 10 6.1
2019-Dec-15 11:55 291 9 gusting 11 6.1
2019-Dec-15 11:50 272 8 gusting 11 6.1
2019-Dec-15 11:45 242 5 gusting 10 6.1
2019-Dec-15 11:40 274 6.1
2019-Dec-15 11:35 283 7 gusting 8 6.1
2019-Dec-15 11:30 268 4 gusting 12 6.1
2019-Dec-15 11:25 244 10 gusting 13 6.1
2019-Dec-15 11:20 251 4 gusting 11 6.1
2019-Dec-15 11:15 249 6 gusting 10 6.7
2019-Dec-15 11:10 266 9 gusting 12 6.7
2019-Dec-15 11:05 263 1 gusting 12 6.7
2019-Dec-15 11:00 246 8 gusting 10 6.7
2019-Dec-15 10:55 255 6 gusting 13 6.7
2019-Dec-15 10:50 256 10 gusting 13 6.7
2019-Dec-15 10:45 266 6 gusting 14 6.7
2019-Dec-15 10:40 245 6 gusting 14 6.7
2019-Dec-15 10:35 283 11 gusting 14 6.7
2019-Dec-15 10:30 265 8 gusting 9 6.7
2019-Dec-15 10:25 255 5 gusting 10 6.7
2019-Dec-15 10:20 247 6.7
2019-Dec-15 10:15 292 5 gusting 11 6.7
2019-Dec-15 10:10 295 5 gusting 12 6.7
2019-Dec-15 10:05 269 6 gusting 13 6.7
2019-Dec-15 10:00 286 8 gusting 13 6.7
2019-Dec-15 09:55 273 6 gusting 12 6.7
2019-Dec-15 09:50 240 4 gusting 13 6.7
2019-Dec-15 09:45 315 7 gusting 15 6.7
2019-Dec-15 09:40 300 5 gusting 13 6.7
2019-Dec-15 09:35 277 7 gusting 14 6.7
2019-Dec-15 09:30 252 7 gusting 13 6.7
2019-Dec-15 09:25 264 8 gusting 13 6.7
2019-Dec-15 09:20 301 3 gusting 18 6.7
2019-Dec-15 09:15 291 7 gusting 14 6.7
2019-Dec-15 09:10 280 6 gusting 13 6.1
2019-Dec-15 09:05 307 4 gusting 12 6.1
2019-Dec-15 09:00 282 8 gusting 13 6.1
2019-Dec-15 08:55 272 9 gusting 10 6.1
2019-Dec-15 08:50 279 7 gusting 12 6.1
2019-Dec-15 08:45 272 10 gusting 14 6.1
2019-Dec-15 08:40 284 5 gusting 15 6.1
2019-Dec-15 08:35 283 7 gusting 18 6.1
2019-Dec-15 08:30 243 6 gusting 16 6.7
2019-Dec-15 08:25 264 8 gusting 13 6.1
2019-Dec-15 08:20 292 9 gusting 14 6.1
2019-Dec-15 08:15 263 8 gusting 16 6.1
2019-Dec-15 08:10 264 9 gusting 19 6.1
2019-Dec-15 08:05 260 9 gusting 18 6.1
2019-Dec-15 08:00 283 10 gusting 17 6.1
2019-Dec-15 07:55 303 8 gusting 17 6.1
2019-Dec-15 07:50 262 11 gusting 16 6.1
2019-Dec-15 07:45 305 9 gusting 13 6.1
2019-Dec-15 07:40 290 13 gusting 19 6.1
2019-Dec-15 07:35 278 13 gusting 18 6.1
2019-Dec-15 07:30 297 10 gusting 17 6.1
2019-Dec-15 07:25 278 7 gusting 14 6.1
2019-Dec-15 07:20 294 4 gusting 13 6.1
2019-Dec-15 07:15 237 7 gusting 16 6.1
2019-Dec-15 07:10 243 12 gusting 14 6.1
2019-Dec-15 07:05 274 11 gusting 16 6.1
2019-Dec-15 07:00 323 7 gusting 18 6.1
2019-Dec-15 06:55 250 9 gusting 18 6.1
2019-Dec-15 06:50 268 9 gusting 18 6.1
2019-Dec-15 06:45 285 13 gusting 14 6.1
2019-Dec-15 06:40 270 8 gusting 16 6.1
2019-Dec-15 06:35 275 11 gusting 15 6.1
2019-Dec-15 06:30 247 10 gusting 15 6.1
2019-Dec-15 06:25 255 9 gusting 12 6.1
2019-Dec-15 06:20 258 9 gusting 14 6.1
2019-Dec-15 06:15 272 4 gusting 16 6.7
2019-Dec-15 06:10 268 6 gusting 18 6.7
2019-Dec-15 06:05 300 10 gusting 16 6.1
2019-Dec-15 06:00 294 8 gusting 13 6.1
2019-Dec-15 05:55 281 7 gusting 16 6.7
2019-Dec-15 05:50 312 11 gusting 18 6.7
2019-Dec-15 05:45 278 5 gusting 13 6.7
2019-Dec-15 05:40 258 9 gusting 15 6.7
2019-Dec-15 05:35 309 4 gusting 12 6.7
2019-Dec-15 05:30 288 5 gusting 15 6.1
2019-Dec-15 05:25 294 9 gusting 14 6.7
2019-Dec-15 05:20 282 6 gusting 13 6.7
2019-Dec-15 05:15 261 6 gusting 15 6.7
2019-Dec-15 05:10 313 9 gusting 13 6.7
2019-Dec-15 05:05 292 6 gusting 16 6.7
2019-Dec-15 05:00 258 11 gusting 14 6.7
2019-Dec-15 04:55 283 5 gusting 15 6.7
2019-Dec-15 04:50 277 5 gusting 15 6.7
2019-Dec-15 04:45 288 8 gusting 13 6.7
2019-Dec-15 04:40 298 9 gusting 16 6.7
2019-Dec-15 04:35 275 8 gusting 13 6.7
2019-Dec-15 04:30 286 6 gusting 16 6.7
2019-Dec-15 04:25 291 9 gusting 18 6.7
2019-Dec-15 04:20 301 5 gusting 18 6.7
2019-Dec-15 04:15 283 11 gusting 17 6.7
2019-Dec-15 04:10 259 9 gusting 18 7.2
2019-Dec-15 04:00 284 14 gusting 16 7.2
2019-Dec-15 03:55 314 11 gusting 15 7.2
2019-Dec-15 03:50 294 8 gusting 16 7.2
2019-Dec-15 03:45 294 6 gusting 15 7.2
2019-Dec-15 03:40 252 7 gusting 17 7.2
2019-Dec-15 03:35 305 9 gusting 18 7.2
2019-Dec-15 03:30 274 9 gusting 18 7.2
2019-Dec-15 03:25 291 11 gusting 18 7.2
2019-Dec-15 03:20 282 10 gusting 18 7.2
2019-Dec-15 03:15 275 6 gusting 18 7.2
2019-Dec-15 03:10 287 9 gusting 18 7.2
2019-Dec-15 03:05 297 7 gusting 19 7.8
2019-Dec-15 03:00 306 14 gusting 16 7.2
2019-Dec-15 02:55 308 4 gusting 18 7.8
2019-Dec-15 02:50 319 11 gusting 19 7.8
2019-Dec-15 02:45 315 19 gusting 19 7.8
2019-Dec-15 02:40 270 4 gusting 17 7.8
2019-Dec-15 02:35 280 15 gusting 21 7.8
2019-Dec-15 02:30 300 13 gusting 18 7.8
2019-Dec-15 02:25 297 8 gusting 23 7.8
2019-Dec-15 02:20 282 9 gusting 18 8.3
2019-Dec-15 02:15 308 8 gusting 19 8.3
2019-Dec-15 02:10 311 6 gusting 15 8.3
2019-Dec-15 02:05 280 9 gusting 11 8.3
2019-Dec-15 02:00 298 7 gusting 12 8.3
2019-Dec-15 01:55 297 6 gusting 13 8.3
2019-Dec-15 01:50 282 4 gusting 12 8.3
2019-Dec-15 01:45 288 5 gusting 11 8.3
2019-Dec-15 01:40 299 6 gusting 11 8.3
2019-Dec-15 01:35 285 10 gusting 14 8.3
2019-Dec-15 01:30 278 6 gusting 17 8.9
2019-Dec-15 01:25 288 6 gusting 18 8.9
2019-Dec-15 01:20 280 12 gusting 14 8.9
2019-Dec-15 01:15 289 12 gusting 15 8.9
2019-Dec-15 01:10 268 11 gusting 16 8.9
2019-Dec-15 01:05 278 8 gusting 16 8.9
2019-Dec-15 01:00 263 7 gusting 17 8.9
2019-Dec-15 00:55 258 13 gusting 17 8.9
2019-Dec-15 00:50 282 9 gusting 13 8.9
2019-Dec-15 00:45 271 6 gusting 18 8.9
2019-Dec-15 00:40 266 6 gusting 14 8.9
2019-Dec-15 00:35 239 4 gusting 13 8.9
2019-Dec-15 00:30 267 5 gusting 11 8.3
2019-Dec-15 00:25 248 4 gusting 9 8.3
2019-Dec-15 00:20 259 1 gusting 10 8.3
2019-Dec-15 00:15 268 5 gusting 10 8.3
2019-Dec-15 00:10 249 4 gusting 10 8.3
2019-Dec-15 00:05 286 6 gusting 10 8.3
2019-Dec-15 00:00 238 6 gusting 13 8.3
2019-Dec-14 23:55 253 9 gusting 13 8.3
2019-Dec-14 23:50 259 6 gusting 13 8.3
2019-Dec-14 23:45 286 9 gusting 13 8.3
2019-Dec-14 23:40 288 7 gusting 13 8.3
2019-Dec-14 23:35 252 12 gusting 13 8.3
2019-Dec-14 23:30 258 11 gusting 13 8.3
2019-Dec-14 23:25 254 4 gusting 11 8.3
2019-Dec-14 23:20 280 7 gusting 13 8.3
2019-Dec-14 23:15 277 10 gusting 11 8.3
2019-Dec-14 23:10 272 5 gusting 12 8.3
2019-Dec-14 23:05 264 4 gusting 13 8.3
2019-Dec-14 23:00 268 6 gusting 11 8.3
2019-Dec-14 22:55 289 7 gusting 12 8.3
2019-Dec-14 22:50 288 7 gusting 11 8.3
2019-Dec-14 22:45 300 5 gusting 11 8.3
2019-Dec-14 22:40 271 9 gusting 11 8.9
2019-Dec-14 22:35 272 5 gusting 9 8.9
2019-Dec-14 22:30 263 2 gusting 11 8.3
2019-Dec-14 22:25 252 2 gusting 10 8.3
2019-Dec-14 22:20 290 5 gusting 9 8.3
2019-Dec-14 22:15 250 7 gusting 11 8.9
2019-Dec-14 22:10 285 7 gusting 15 8.9
2019-Dec-14 22:05 265 5 gusting 12 8.9
2019-Dec-14 22:00 270 5 gusting 13 8.9
2019-Dec-14 21:55 263 3 gusting 13 8.3
2019-Dec-14 21:50 262 4 gusting 10 8.9
2019-Dec-14 21:45 256 5 gusting 10 8.9
2019-Dec-14 21:40 271 11 gusting 11 8.9
2019-Dec-14 21:35 253 8 gusting 13 8.9
2019-Dec-14 21:30 288 6 gusting 11 8.9
2019-Dec-14 21:25 246 4 gusting 11 8.9
2019-Dec-14 21:20 270 5 gusting 13 8.9
2019-Dec-14 21:05 246 5 gusting 13 8.9
2019-Dec-14 21:00 273 3 gusting 13 9.4
2019-Dec-14 20:55 244 9 gusting 14 9.4
2019-Dec-14 20:50 241 6 gusting 13 9.4
2019-Dec-14 20:45 271 9 gusting 13 9.4
2019-Dec-14 20:40 270 4 gusting 11 9.4
2019-Dec-14 20:35 275 7 gusting 12 9.4
2019-Dec-14 20:30 257 6 gusting 12 9.4
2019-Dec-14 20:25 272 4 gusting 13 9.4
2019-Dec-14 20:20 276 3 gusting 13 9.4
2019-Dec-14 20:15 271 5 gusting 12 9.4
2019-Dec-14 20:10 258 6 gusting 16 9.4
2019-Dec-14 20:05 269 5 gusting 13 9.4
2019-Dec-14 20:00 223 9 gusting 15 10.0
2019-Dec-14 19:55 237 8 gusting 15 10.0
2019-Dec-14 19:50 277 6 gusting 16 10.0
2019-Dec-14 19:45 270 5 gusting 14 10.0
2019-Dec-14 19:40 262 8 gusting 12 10.0
2019-Dec-14 19:35 213 4 gusting 10 10.0
2019-Dec-14 19:30 219 4 gusting 11 10.6
2019-Dec-14 19:25 239 9 gusting 10 10.6
2019-Dec-14 19:20 229 10.6
2019-Dec-14 19:15 260 5 gusting 11 10.6
2019-Dec-14 19:10 220 4 gusting 10 10.6
2019-Dec-14 19:05 227 3 gusting 7 10.6
2019-Dec-14 19:00 263 10.6
2019-Dec-14 18:55 222 10.0
2019-Dec-14 18:50 218 10.0
2019-Dec-14 18:45 185 10.0
2019-Dec-14 18:40 239 10.0
2019-Dec-14 18:35 236 10.0
2019-Dec-14 18:30 204 10.6
2019-Dec-14 18:25 183 2 gusting 6 10.6
2019-Dec-14 18:20 197 10.6
2019-Dec-14 18:15 183 10.6
2019-Dec-14 18:10 149 10.6
2019-Dec-14 18:05 172 10.6
2019-Dec-14 18:00 169 10.0
2019-Dec-14 17:55 160 5 gusting 8 10.0
2019-Dec-14 17:50 238 5 gusting 9 10.0
2019-Dec-14 17:45 262 2 gusting 6 10.0
2019-Dec-14 17:40 201 10.0
2019-Dec-14 17:35 203 10.0
2019-Dec-14 17:30 182 1 gusting 6 10.0
2019-Dec-14 17:25 178 2 gusting 9 10.0
2019-Dec-14 17:20 154 6 gusting 8 10.0
2019-Dec-14 17:15 178 4 gusting 8 10.0
2019-Dec-14 17:10 158 10.6
2019-Dec-14 17:05 171 1 gusting 6 10.6
2019-Dec-14 17:00 157 10.6
2019-Dec-14 16:55 172 2 gusting 6 10.6
2019-Dec-14 16:50 182 10.6
2019-Dec-14 16:45 185 4 gusting 8 10.6
2019-Dec-14 16:40 189 4 gusting 7 10.6
2019-Dec-14 16:35 150 4 gusting 9 10.6
2019-Dec-14 16:30 146 10.6
2019-Dec-14 16:25 190 7 gusting 7 10.6
2019-Dec-14 16:20 178 10.6
2019-Dec-14 16:15 171 10.6
2019-Dec-14 16:10 172 10.6
2019-Dec-14 16:05 125 10.6
2019-Dec-14 16:00 198 10.6
2019-Dec-14 15:55 149 11.1
2019-Dec-14 15:50 179 11.1
2019-Dec-14 15:45 161 11.1
2019-Dec-14 15:40 196 11.1
2019-Dec-14 15:35 205 3 gusting 6 11.1
2019-Dec-14 15:30 165 11.1
2019-Dec-14 15:25 166 0 gusting 6 11.1
2019-Dec-14 15:20 167 11.1
2019-Dec-14 15:15 144 11.1
2019-Dec-14 15:10 187 11.1
2019-Dec-14 15:05 191 11.1
2019-Dec-14 15:00 175 4 gusting 7 10.6
2019-Dec-14 14:55 143 11.1
2019-Dec-14 14:50 181 11.1
2019-Dec-14 14:45 158 11.1
2019-Dec-14 14:40 159 11.1
2019-Dec-14 14:35 167 11.1
2019-Dec-14 14:30 153 11.1
2019-Dec-14 14:25 175 11.1
2019-Dec-14 14:20 157 10.6
2019-Dec-14 14:15 186 11.1
2019-Dec-14 14:10 161 11.1
2019-Dec-14 14:05 171 11.1
2019-Dec-14 14:00 168 11.1
2019-Dec-14 13:55 209 10.6
2019-Dec-14 13:50 199 10.6
2019-Dec-14 13:45 165 10.6
2019-Dec-14 13:40 156 10.6
2019-Dec-14 13:35 156 10.6
2019-Dec-14 13:30 195 10.6
2019-Dec-14 13:25 184 10.6
2019-Dec-14 13:20 303 10.0
2019-Dec-14 13:15 204 10.0
2019-Dec-14 13:10 243 10.0
2019-Dec-14 13:05 167 10.0
2019-Dec-14 13:00 245 10.6
2019-Dec-14 12:55 263 10.6
2019-Dec-14 12:50 266 10.6
2019-Dec-14 12:45 154 10.6
2019-Dec-14 12:40 168 10.6
2019-Dec-14 12:35 166 10.6
2019-Dec-14 12:30 166 10.6
2019-Dec-14 12:25 199 10.6
2019-Dec-14 12:20 156 10.6
2019-Dec-14 12:15 156 10.0
2019-Dec-14 12:10 168 10.0
2019-Dec-14 12:05 176 10.6
2019-Dec-14 12:00 148 10.6
2019-Dec-14 11:55 136 10.6
2019-Dec-14 11:50 149 10.6
2019-Dec-14 11:45 136 10.6
2019-Dec-14 11:40 140 10.6
2019-Dec-14 11:35 133 10.6
2019-Dec-14 11:30 168 10.6
2019-Dec-14 11:25 149 10.6
2019-Dec-14 11:20 162 10.6
2019-Dec-14 10:55 161 10.6
2019-Dec-14 10:50 181 10.6
2019-Dec-14 10:45 162 4 gusting 4 10.6
2019-Dec-14 10:40 153 10.6
2019-Dec-14 10:35 178 10.6
2019-Dec-14 10:30 168 10.6
2019-Dec-14 10:25 151 10.6
2019-Dec-14 10:20 180 10.6
2019-Dec-14 10:15 172 10.6
2019-Dec-14 10:10 160 10.6
2019-Dec-14 10:05 148 10.6
2019-Dec-14 10:00 158 10.6
2019-Dec-14 09:55 168 10.6
2019-Dec-14 09:50 175 10.6
2019-Dec-14 09:45 152 10.6
2019-Dec-14 09:40 151 10.6
2019-Dec-14 09:35 145 10.6
2019-Dec-14 09:30 157 0 gusting 6 10.6
2019-Dec-14 09:25 157 2 gusting 6 10.6
2019-Dec-14 09:20 181 1 gusting 4 10.6
2019-Dec-14 09:05 159 4 gusting 7 11.1
2019-Dec-14 09:00 146 11.1
2019-Dec-14 08:50 164 11.7
2019-Dec-14 08:45 161 11.7
2019-Dec-14 08:40 175 2 gusting 4 11.7
2019-Dec-14 08:35 159 11.7
2019-Dec-14 08:30 134 11.7
2019-Dec-14 08:25 173 11.7
2019-Dec-14 08:20 171 12.2
2019-Dec-14 08:15 178 12.2
2019-Dec-14 08:10 193 12.2
2019-Dec-14 08:05 123 12.2
2019-Dec-14 08:00 179 12.8
2019-Dec-14 07:55 152 12.8
2019-Dec-14 07:50 147 12.8
2019-Dec-14 07:45 150 12.8
2019-Dec-14 07:40 164 12.8
2019-Dec-14 07:35 139 12.8
2019-Dec-14 07:30 144 12.8
2019-Dec-14 07:25 146 12.8
2019-Dec-14 07:20 155 13.3
2019-Dec-14 07:15 161 13.3
2019-Dec-14 07:10 179 12.8
2019-Dec-14 07:05 173 13.3
2019-Dec-14 07:00 114 12.8
2019-Dec-14 06:55 035 13.3
2019-Dec-14 06:50 035 12.8
2019-Dec-14 06:45 035 12.8
2019-Dec-14 06:40 020 12.2
2019-Dec-14 06:35 020 11.7
2019-Dec-14 06:30 020 11.7
2019-Dec-14 06:25 020 11.7
2019-Dec-14 06:20 027 11.7
2019-Dec-14 06:15 027 11.7
2019-Dec-14 06:10 027 11.7
2019-Dec-14 06:05 027 11.7
2019-Dec-14 06:00 013 11.1
2019-Dec-14 05:55 013 11.1
2019-Dec-14 05:50 013 11.7
2019-Dec-14 05:45 329 11.7
2019-Dec-14 05:40 289 11.7
2019-Dec-14 05:35 292 11.7
2019-Dec-14 05:30 286 11.7
2019-Dec-14 05:25 269 11.7
2019-Dec-14 05:20 226 11.7
2019-Dec-14 05:15 262 11.7
2019-Dec-14 05:10 239 3 gusting 4 11.1
2019-Dec-14 05:05 247 11.7
2019-Dec-14 05:00 158 11.7
2019-Dec-14 04:55 162 12.2
2019-Dec-14 04:50 131 12.2
2019-Dec-14 04:45 160 4 gusting 6 12.2
2019-Dec-14 04:40 182 12.8
2019-Dec-14 04:35 131 12.8
2019-Dec-14 04:30 145 12.8
2019-Dec-14 04:25 171 0 gusting 6 12.8
2019-Dec-14 04:20 139 2 gusting 6 12.8
2019-Dec-14 04:15 124 9 gusting 9 12.8
2019-Dec-14 04:10 140 3 gusting 8 13.3
2019-Dec-14 04:05 130 3 gusting 6 13.3
2019-Dec-14 04:00 121 12.8
2019-Dec-14 03:55 144 1 gusting 6 12.8
2019-Dec-14 03:50 117 4 gusting 8 12.8
2019-Dec-14 03:45 127 4 gusting 6 12.8
2019-Dec-14 03:40 101 0 gusting 5 12.8
2019-Dec-14 03:35 111 5 gusting 6 12.8
2019-Dec-14 03:30 113 4 gusting 8 13.3
2019-Dec-14 03:25 113 0 gusting 8 13.3
2019-Dec-14 03:20 063 4 gusting 6 12.8
2019-Dec-14 03:15 097 12.8
2019-Dec-14 03:10 082 12.8
2019-Dec-14 03:05 092 6 gusting 6 12.8
2019-Dec-14 03:00 091 4 gusting 7 12.8
2019-Dec-14 02:55 084 12.2
2019-Dec-14 02:50 079 3 gusting 6 12.2
2019-Dec-14 02:45 085 12.2
2019-Dec-14 02:40 091 4 gusting 9 12.2
2019-Dec-14 02:35 092 4 gusting 6 12.2
2019-Dec-14 02:30 116 12.2
2019-Dec-14 02:25 104 3 gusting 11 12.2
2019-Dec-14 02:20 113 4 gusting 10 12.2
2019-Dec-14 02:15 112 4 gusting 13 12.2
2019-Dec-14 02:10 112 7 gusting 11 12.2
2019-Dec-14 02:05 103 6 gusting 13 12.2
2019-Dec-14 02:00 107 6 gusting 9 12.2
2019-Dec-14 01:55 091 5 gusting 10 12.2
2019-Dec-14 01:50 092 3 gusting 9 12.2
2019-Dec-14 01:45 083 6 gusting 12 12.2
2019-Dec-14 01:40 092 5 gusting 10 12.2
2019-Dec-14 01:35 098 4 gusting 9 12.2
2019-Dec-14 01:30 077 10 gusting 10 12.8
2019-Dec-14 01:25 121 0 gusting 11 12.8
2019-Dec-14 01:20 044 12.2
2019-Dec-14 01:15 085 2 gusting 9 12.2
2019-Dec-14 01:10 037 4 gusting 9 12.2
2019-Dec-14 01:05 078 12.2
2019-Dec-14 01:00 075 9 gusting 11 12.2
2019-Dec-14 00:55 074 6 gusting 13 12.2
2019-Dec-14 00:50 041 6 gusting 9 12.2
2019-Dec-14 00:45 087 12.2
2019-Dec-14 00:40 039 4 gusting 8 12.2
2019-Dec-14 00:35 057 12.2
2019-Dec-14 00:30 058 4 gusting 10 12.2
2019-Dec-14 00:25 068 4 gusting 9 11.7
2019-Dec-14 00:20 084 3 gusting 7 11.7
2019-Dec-14 00:15 060 0 gusting 9 11.7
2019-Dec-14 00:10 069 11.7
2019-Dec-14 00:05 088 3 gusting 6 11.7
2019-Dec-14 00:00 082 11.7
2019-Dec-13 23:55 058 3 gusting 6 11.7
2019-Dec-13 23:50 101 11.7
2019-Dec-13 23:45 017 5 gusting 8 11.1
2019-Dec-13 23:40 070 4 gusting 8 11.1
2019-Dec-13 23:35 080 11.1
2019-Dec-13 23:30 054 11.1
2019-Dec-13 23:25 079 11.1
2019-Dec-13 23:20 030 2 gusting 9 11.1
2019-Dec-13 23:15 077 6 gusting 6 11.1
2019-Dec-13 23:10 065 3 gusting 6 11.1
2019-Dec-13 23:05 094 3 gusting 9 11.1
2019-Dec-13 23:00 077 2 gusting 7 11.1
2019-Dec-13 22:55 103 5 gusting 9 11.1
2019-Dec-13 22:50 058 11.1
2019-Dec-13 22:45 088 4 gusting 8 11.1
2019-Dec-13 22:40 104 3 gusting 8 11.1
2019-Dec-13 22:35 036 4 gusting 9 11.1
2019-Dec-13 22:30 093 4 gusting 9 11.1
2019-Dec-13 22:25 066 1 gusting 9 11.1
2019-Dec-13 22:20 103 11.1
2019-Dec-13 22:15 069 1 gusting 6 11.1
2019-Dec-13 22:10 110 11.1
2019-Dec-13 22:05 070 4 gusting 6 11.1
2019-Dec-13 22:00 076 4 gusting 9 11.1
2019-Dec-13 21:55 077 7 gusting 8 11.1
2019-Dec-13 21:50 093 3 gusting 6 11.1
2019-Dec-13 21:45 103 4 gusting 6 11.1
2019-Dec-13 21:40 074 1 gusting 7 11.1
2019-Dec-13 21:35 080 11.1
2019-Dec-13 21:30 090 6 gusting 7 11.1
2019-Dec-13 21:25 075 3 gusting 6 11.1
2019-Dec-13 21:20 089 5 gusting 6 11.1
2019-Dec-13 21:15 065 5 gusting 7 11.1
2019-Dec-13 21:10 099 4 gusting 6 11.1
2019-Dec-13 21:05 085 3 gusting 9 11.7
2019-Dec-13 21:00 109 3 gusting 6 11.7
2019-Dec-13 20:55 072 1 gusting 6 11.7
2019-Dec-13 20:50 064 2 gusting 6 11.7
2019-Dec-13 20:45 084 2 gusting 5 11.7
2019-Dec-13 20:40 107 11.7
2019-Dec-13 20:35 037 5 gusting 8 11.7
2019-Dec-13 20:30 068 1 gusting 6 11.7
2019-Dec-13 20:25 078 4 gusting 6 11.7
2019-Dec-13 20:20 049 11.7
2019-Dec-13 20:15 067 11.7
2019-Dec-13 20:10 094 11.7
2019-Dec-13 20:05 095 5 gusting 6 12.2
2019-Dec-13 20:00 094 4 gusting 7 12.2
2019-Dec-13 19:55 090 3 gusting 9 12.2
2019-Dec-13 19:50 091 4 gusting 9 12.2
2019-Dec-13 19:45 092 6 gusting 9 11.7
2019-Dec-13 19:40 111 5 gusting 9 11.7
2019-Dec-13 19:35 102 6 gusting 9 11.7
2019-Dec-13 19:30 071 9 gusting 9 11.1
2019-Dec-13 19:25 121 4 gusting 9 11.1
2019-Dec-13 19:20 123 6 gusting 9 11.1
2019-Dec-13 19:15 125 5 gusting 10 11.1
2019-Dec-13 19:10 101 10 gusting 10 11.1
2019-Dec-13 19:05 103 4 gusting 9 11.1
2019-Dec-13 19:00 102 5 gusting 7 11.1
2019-Dec-13 18:55 122 4 gusting 6 11.1
2019-Dec-13 18:50 101 3 gusting 7 11.1
2019-Dec-13 18:45 079 6 gusting 8 11.1
2019-Dec-13 18:40 112 4 gusting 5 11.1
2019-Dec-13 18:35 116 4 gusting 6 11.1
2019-Dec-13 18:30 106 11.1
2019-Dec-13 18:25 105 11.1
2019-Dec-13 18:20 101 5 gusting 6 11.1
2019-Dec-13 18:15 115 6 gusting 8 11.1
2019-Dec-13 18:10 112 2 gusting 7 11.1
2019-Dec-13 18:05 111 4 gusting 5 11.1
2019-Dec-13 18:00 116 4 gusting 7 11.1
2019-Dec-13 17:55 110 4 gusting 8 11.1
2019-Dec-13 17:50 103 4 gusting 9 11.1
2019-Dec-13 17:45 095 3 gusting 9 11.1
2019-Dec-13 17:40 106 4 gusting 8 11.1
2019-Dec-13 17:35 107 11.1
2019-Dec-13 17:30 092 5 gusting 7 11.1
2019-Dec-13 17:25 097 4 gusting 8 11.1
2019-Dec-13 17:20 094 6 gusting 8 11.1
2019-Dec-13 17:15 120 5 gusting 9 11.1
2019-Dec-13 17:10 108 7 gusting 9 11.1
2019-Dec-13 17:05 104 5 gusting 9 11.1
2019-Dec-13 17:00 096 5 gusting 7 11.1
2019-Dec-13 16:55 105 5 gusting 8 10.6
2019-Dec-13 16:50 065 3 gusting 9 10.6
2019-Dec-13 16:45 074 3 gusting 7 10.6
2019-Dec-13 16:40 096 4 gusting 8 10.6
2019-Dec-13 16:35 094 6 gusting 8 10.6
2019-Dec-13 16:30 099 6 gusting 9 10.6
2019-Dec-13 16:25 109 3 gusting 8 10.6
2019-Dec-13 16:20 102 4 gusting 8 10.0
2019-Dec-13 16:15 100 6 gusting 7 10.0
2019-Dec-13 16:10 094 8 gusting 9 10.0
2019-Dec-13 16:05 086 9 gusting 9 10.0
2019-Dec-13 16:00 102 6 gusting 9 10.0